Volver al catálogo

FENGYUN 1C DEB

ActivoSSO
NORAD 31351·DEBRIS·🇨🇳 China

Lanzado May 10, 1999 desde Taiyuan Satellite Launch Center

Loading…

Próximos Pases (próximas 24 horas)

TLE

EnvejeciendoSource: Space-Track

Época: Sep 5, 2026, 09:43 UTC

1 31351U 99025BRF 26248.40521248  .00000253  00000-0  16954-3 0  9994
2 31351  98.8197 233.3839 0093256  21.8469 338.6637 14.07207152651257

Sigue FENGYUN 1C DEB en tiempo real con AllMySat

Download on the App Store